Regional Weather Roundup
Issued by NWS Albany, NY

Home | Current Version | Previous Version | Text Only | Print | Product List | Glossary On
Versions: 1 2 3 4 5 6 7 8 9 10 11 12 13 14 15 16 17 18 19 20 21 22 23 24 25 26 27 28 29 30 31 32 33 34 35 36 37 38 39 40 41 42 43 44 45 46 47 48 49 50
000
ASUS41 KALY 250010
RWRALY

NEW YORK STATE HOURLY WEATHER ROUNDUP
NATIONAL WEATHER SERVICE ALBANY NY
700 PM EST MON NOV 24 2014

NOTE: "FAIR" INDICATES FEW OR NO CLOUDS BELOW 12,000 FEET WITH NO
SIGNIFICANT WEATHER AND/OR NO OBSTRUCTIONS TO VISIBILITY.

NYZ032-033-038>043-046>054-057>066-NYZ062>081-250100-
EAST


CITY           SKY/WX    TMP DP  RH WIND       PRES   REMARKS
ALBANY         PTCLDY    65  54  67 S13G21    29.53R
GLENS FALLS    CLEAR     64  55  72 SW13G23   29.47R
POUGHKEEPSIE   CLEAR     67  53  61 S14G22    29.62R
NEWBURGH       CLEAR     64  55  72 SW7G18    29.64R
MONTGOMERY     CLEAR     63  53  70 S12       29.62R
WHITE PLAINS   CLEAR     58  54  86 S7        29.68R
ISLIP          PTCLDY    59  55  87 SW16      29.69R
NEW YORK CITY  CLEAR     63  55  75 SW10      29.68R
CENTRAL PARK   CLEAR     66  54  65 VRB5      29.70R
$$

NYZ005>009-017-018-044>046-055-056-250100-
CENTRAL


CITY           SKY/WX    TMP DP  RH WIND       PRES   REMARKS
FULTON         LGT RAIN  59  49  69 SW12      29.47R
SYRACUSE       CLOUDY    63  51  65 W16       29.46R
ROME           CLOUDY    66  48  52 S17G24    29.46R
ELMIRA         MOCLDY    64  50  60 SW10      29.52R
BINGHAMTON     CLEAR     60  48  64 SW14G25   29.54R
MONTICELLO     CLEAR     57  52  82 SW10G21   29.64R
$$

NYZ026>034-041>043-250100-
NORTH


CITY           SKY/WX    TMP DP  RH WIND       PRES   REMARKS
WATERTOWN      LGT RAIN  56  48  74 SW16G24   29.40R
FORT DRUM      NOT AVBL
MASSENA        CLOUDY    56  50  80 SW17      29.37R
SARANAC LAKE   PTCLDY    53  50  90 SW12      29.38S
PLATTSBURGH    PTCLDY    59  54  83 S10       29.35
$$

NYZ001>004-010>016-019>021-250100-
WEST


CITY           SKY/WX    TMP DP  RH WIND       PRES   REMARKS
NIAGARA FALLS  PTCLDY    45  36  70 W37G51    29.50
BUFFALO        PTCLDY    46  38  73 SW22G44   29.53R
DUNKIRK        CLEAR     46  39  76 SW21G32   29.57R
JAMESTOWN      PTCLDY    48  36  61 SW22G31   29.56R
WELLSVILLE     PTCLDY    53  44  71 SW15G25   29.56R
ROCHESTER      PTCLDY    51  41  68 W26G33    29.49R
PENN YAN       MOCLDY    58  48  69 SW15      29.51R
$$

             KEY
       WCI = WIND CHILL INDEX
       VSB = VISIBILITY
       HX  = HEAT INDEX
$$


USA.gov is the U.S. government's official web portal to all federal, state and local government web resources and services.